TimeEDT,TemperatureF,Dew PointF,Humidity,Sea Level PressureIn,VisibilityMPH,Wind Direction,Wind SpeedMPH,Gust SpeedMPH,PrecipitationIn,Events,Conditions,WindDirDegrees,DateUTC
12:15 AM,64.4,62.6,94,30.20,10.0,East,4.6,-,N/A,,Clear,100,2013-04-17 04:15:00
12:35 AM,64.4,62.6,94,30.19,10.0,East,4.6,-,N/A,,Clear,100,2013-04-17 04:35:00
12:55 AM,64.4,62.6,94,30.19,10.0,Calm,Calm,-,N/A,,Clear,0,2013-04-17 04:55:00
1:15 AM,64.4,62.6,94,30.19,10.0,Calm,Calm,-,N/A,,Clear,0,2013-04-17 05:15:00
1:35 AM,64.4,62.6,94,30.19,10.0,East,3.5,-,N/A,,Clear,90,2013-04-17 05:35:00
1:55 AM,62.6,62.6,100,30.19,10.0,Calm,Calm,-,N/A,,Clear,0,2013-04-17 05:55:00
2:15 AM,62.6,62.6,100,30.19,10.0,Calm,Calm,-,N/A,,Clear,0,2013-04-17 06:15:00
2:35 AM,62.6,62.6,100,30.18,10.0,Calm,Calm,-,N/A,,Clear,0,2013-04-17 06:35:00
2:55 AM,60.8,60.8,100,30.18,10.0,Calm,Calm,-,N/A,,Clear,0,2013-04-17 06:55:00
3:15 AM,60.8,60.8,100,30.18,10.0,Calm,Calm,-,N/A,,Clear,0,2013-04-17 07:15:00
3:35 AM,60.8,60.8,100,30.18,10.0,Calm,Calm,-,N/A,,Clear,0,2013-04-17 07:35:00
3:55 AM,60.8,60.8,100,30.19,10.0,Calm,Calm,-,N/A,,Clear,0,2013-04-17 07:55:00
4:15 AM,60.8,60.8,100,30.19,10.0,Calm,Calm,-,N/A,,Clear,0,2013-04-17 08:15:00
4:35 AM,60.8,60.8,100,30.18,5.0,Calm,Calm,-,N/A,,Clear,0,2013-04-17 08:35:00
4:55 AM,60.8,60.8,100,30.18,7.0,Calm,Calm,-,N/A,,Scattered Clouds,0,2013-04-17 08:55:00
5:15 AM,60.8,60.8,100,30.18,7.0,East,3.5,-,N/A,,Scattered Clouds,80,2013-04-17 09:15:00
5:35 AM,60.8,60.8,100,30.18,7.0,Calm,Calm,-,N/A,,Clear,0,2013-04-17 09:35:00
5:55 AM,60.8,60.8,100,30.19,7.0,Calm,Calm,-,N/A,,Clear,0,2013-04-17 09:55:00
6:15 AM,60.8,60.8,100,30.19,7.0,Calm,Calm,-,N/A,,Clear,0,2013-04-17 10:15:00
6:35 AM,60.8,60.8,100,30.20,7.0,Calm,Calm,-,N/A,,Clear,0,2013-04-17 10:35:00
6:55 AM,60.8,60.8,100,30.20,5.0,East,3.5,-,N/A,,Clear,90,2013-04-17 10:55:00
7:15 AM,60.8,60.8,100,30.21,5.0,Calm,Calm,-,N/A,,Clear,0,2013-04-17 11:15:00
7:35 AM,62.6,62.6,100,30.21,4.0,Calm,Calm,-,N/A,,Mostly Cloudy,0,2013-04-17 11:35:00
7:55 AM,62.6,62.6,100,30.21,1.8,Calm,Calm,-,N/A,,Overcast,0,2013-04-17 11:55:00
8:15 AM,62.6,62.6,100,30.21,1.5,East,3.5,-,N/A,,Overcast,90,2013-04-17 12:15:00
8:35 AM,62.6,62.6,100,30.21,1.8,ENE,3.5,-,N/A,,Overcast,70,2013-04-17 12:35:00
8:55 AM,64.4,64.4,100,30.21,5.0,Calm,Calm,-,N/A,,Overcast,0,2013-04-17 12:55:00
9:15 AM,64.4,64.4,100,30.21,10.0,Calm,Calm,-,N/A,,Mostly Cloudy,0,2013-04-17 13:15:00
9:35 AM,64.4,64.4,100,30.21,10.0,Calm,Calm,-,N/A,,Scattered Clouds,0,2013-04-17 13:35:00
9:55 AM,68.0,66.2,94,30.21,10.0,Calm,Calm,-,N/A,,Clear,0,2013-04-17 13:55:00
10:15 AM,69.8,66.2,88,30.21,10.0,Calm,Calm,-,N/A,,Clear,0,2013-04-17 14:15:00
10:35 AM,69.8,64.4,83,30.21,10.0,East,3.5,-,N/A,,Clear,90,2013-04-17 14:35:00
10:55 AM,69.8,64.4,83,30.21,10.0,East,4.6,-,N/A,,Clear,90,2013-04-17 14:55:00
11:15 AM,69.8,64.4,83,30.22,10.0,Calm,Calm,-,N/A,,Clear,0,2013-04-17 15:15:00
11:35 AM,71.6,66.2,83,30.22,10.0,Calm,Calm,-,N/A,,Clear,0,2013-04-17 15:35:00
11:55 AM,71.6,64.4,78,30.21,10.0,Calm,Calm,-,N/A,,Clear,0,2013-04-17 15:55:00
12:15 PM,73.4,64.4,73,30.21,10.0,Calm,Calm,-,N/A,,Clear,0,2013-04-17 16:15:00
12:35 PM,75.2,64.4,69,30.20,10.0,East,6.9,-,N/A,,Clear,100,2013-04-17 16:35:00
12:55 PM,75.2,64.4,69,30.18,10.0,ESE,4.6,-,N/A,,Clear,110,2013-04-17 16:55:00
1:15 PM,75.2,64.4,69,30.18,10.0,ESE,5.8,-,N/A,,Clear,110,2013-04-17 17:15:00
1:35 PM,77.0,64.4,65,30.18,10.0,SSE,5.8,-,N/A,,Scattered Clouds,160,2013-04-17 17:35:00
1:55 PM,75.2,64.4,69,30.17,10.0,SE,4.6,-,N/A,,Clear,130,2013-04-17 17:55:00
2:15 PM,77.0,64.4,65,30.17,10.0,SSE,4.6,-,N/A,,Clear,160,2013-04-17 18:15:00
2:35 PM,77.0,64.4,65,30.16,10.0,Calm,Calm,-,N/A,,Scattered Clouds,0,2013-04-17 18:35:00
2:55 PM,77.0,64.4,65,30.16,10.0,Calm,Calm,-,N/A,,Mostly Cloudy,0,2013-04-17 18:55:00
3:15 PM,77.0,64.4,65,30.16,10.0,Calm,Calm,-,N/A,,Scattered Clouds,0,2013-04-17 19:15:00
3:35 PM,77.0,64.4,65,30.15,10.0,Calm,Calm,-,N/A,,Clear,0,2013-04-17 19:35:00
3:55 PM,78.8,64.4,61,30.14,10.0,SE,3.5,-,N/A,,Clear,130,2013-04-17 19:55:00
4:35 PM,77.0,64.4,65,30.14,10.0,Calm,Calm,-,N/A,,Scattered Clouds,0,2013-04-17 20:35:00
4:55 PM,77.0,64.4,65,30.13,10.0,Calm,Calm,-,N/A,,Mostly Cloudy,0,2013-04-17 20:55:00
5:15 PM,78.8,64.4,61,30.13,10.0,Calm,Calm,-,N/A,,Scattered Clouds,0,2013-04-17 21:15:00
5:35 PM,77.0,64.4,65,30.13,10.0,Calm,Calm,-,N/A,,Clear,0,2013-04-17 21:35:00
5:55 PM,77.0,64.4,65,30.13,10.0,ESE,4.6,-,N/A,,Scattered Clouds,120,2013-04-17 21:55:00
6:15 PM,77.0,64.4,65,30.12,10.0,SE,4.6,-,N/A,,Clear,130,2013-04-17 22:15:00
6:35 PM,77.0,64.4,65,30.12,10.0,SE,3.5,-,N/A,,Clear,140,2013-04-17 22:35:00
6:55 PM,77.0,64.4,65,30.13,10.0,Calm,Calm,-,N/A,,Scattered Clouds,0,2013-04-17 22:55:00
7:15 PM,77.0,64.4,65,30.13,10.0,SE,3.5,-,N/A,,Scattered Clouds,130,2013-04-17 23:15:00
7:35 PM,73.4,66.2,78,30.13,10.0,Calm,Calm,-,N/A,,Scattered Clouds,0,2013-04-17 23:35:00
7:55 PM,73.4,64.4,73,30.13,10.0,ESE,4.6,-,N/A,,Clear,120,2013-04-17 23:55:00
8:15 PM,71.6,64.4,78,30.13,10.0,ESE,3.5,-,N/A,,Clear,110,2013-04-18 00:15:00
8:35 PM,69.8,66.2,88,30.13,10.0,East,3.5,-,N/A,,Clear,90,2013-04-18 00:35:00
8:55 PM,69.8,64.4,83,30.14,10.0,ESE,3.5,-,N/A,,Clear,110,2013-04-18 00:55:00
9:15 PM,69.8,64.4,83,30.15,10.0,SE,4.6,-,N/A,,Clear,130,2013-04-18 01:15:00
9:35 PM,69.8,64.4,83,30.14,10.0,ESE,4.6,-,N/A,,Clear,110,2013-04-18 01:35:00
9:55 PM,68.0,64.4,88,30.14,10.0,ESE,4.6,-,N/A,,Clear,110,2013-04-18 01:55:00
10:15 PM,68.0,64.4,88,30.15,10.0,Calm,Calm,-,N/A,,Clear,0,2013-04-18 02:15:00
10:35 PM,68.0,64.4,88,30.14,10.0,ESE,4.6,-,N/A,,Clear,120,2013-04-18 02:35:00
10:55 PM,66.2,64.4,94,30.14,10.0,East,3.5,-,N/A,,Clear,100,2013-04-18 02:55:00
11:15 PM,64.4,62.6,94,30.13,10.0,East,3.5,-,N/A,,Clear,100,2013-04-18 03:15:00
11:35 PM,64.4,62.6,94,30.13,10.0,ESE,3.5,-,N/A,,Clear,120,2013-04-18 03:35:00
11:55 PM,64.4,62.6,94,30.13,10.0,Calm,Calm,-,N/A,,Clear,0,2013-04-18 03:55:00